Skip Page Navigation
NASA JPL Caltech
NASA Logo - Jet Propulsion Laboratory + View the NASA Portal
+ Near-Earth Object (NEO) Program
Search JPL
JPL Home Earth Solar System Stars & Galaxies Technology
JPL Solar System Dynamics
BODIES ORBITS EPHEMERIDES TOOLS PHYSICAL DATA DISCOVERY FAQ SITE MAP
JPL Small-Body Database Browser
Search: [ help ]  
32845 (1992 FU1)
Classification: Main-belt Asteroid          SPK-ID: 2032845
Ephemeris | Orbit Diagram | Orbital Elements | Physical Parameters | Discovery Circumstances ]

[ show orbit diagram ]
Orbital Elements at Epoch 2456400.5 (2013-Apr-18.0) TDB
Reference: MPO244475 (heliocentric ecliptic J2000)
 Element Value Uncertainty (1-sigma)   Units 
e 0.1533337 n/a  
a 2.4085099 n/a AU
q 2.0392042 n/a AU
i 2.54914 n/a deg
node 150.85551 n/a deg
peri 14.19160 n/a deg
M 242.25053 n/a deg
tp 2456847.0576545
(2014-Jul-08.55765450)
n/a JED
period 1365.2779552
3.74
n/a
n/a
d
yr
n 0.26368257 n/a deg/d
Q 2.7778156 n/a AU
  Orbit Determination Parameters
   # obs. used (total)      556  
   first obs. used      1992-??-??  
   last obs. used      2012-11-26  
   # oppositions      12  
   planetary ephem.      DE403  
   condition code      0  
   fit RMS      0.55  
   data source      MPC:mpn  
   producer      MPCLINUX  

Additional Information
 T_jup = 3.504 

Ephemeris | Orbit Diagram | Orbital Elements | Physical Parameters | Discovery Circumstances ]

Physical Parameter Table
Parameter Symbol Value Units Sigma Reference Notes
absolute magnitude H 15.0 mag n/a PDS3 (MPO 21208)  

32845 (1992 FU1)          Discovered 1992-Mar-26 by Ueda, S., Kaneda, H. at Kushiro (399)
Reference: 20020128/Numbers.arcLast Updated: 2004-04-19

Alternate Designations
 1992 FU1 = 2001 RN81 
Ephemeris | Orbit Diagram | Orbital Elements | Physical Parameters | Discovery Circumstances ]
ABOUT SSD CREDITS/AWARDS PRIVACY/COPYRIGHT GLOSSARY LINKS
FirstGov 2013-May-24 09:46 UT
(server date/time)  
NASA Home Page
Site Manager:   Donald K. Yeomans
Webmaster  Alan B. Chamberlin